Location: Fours
(44.3167°N, 6.7000°E)
Time: 05:17:45
(UTC+00:00)

Cosmos 2218 Rocket - Pass Details

Date: 05 June 2022
Orbit: 956 x 1005 km, 82.9° (Epoch: 03 July)

Event Time Altitude Azimuth Distance (km) Brightness Sun altitude
Rises 23:37:41 0° 7° (N) 3,693 8.5 -23.0°
Reaches altitude 10° 23:41:55 10° 34° (NE) 2,752 7.1 -23.0°
Maximum altitude 23:44:42 13° 61° (ENE) 2,535 6.5 -23.0°
Drops below altitude 10° 23:47:30 10° 88° (E) 2,759 6.4 -23.0°
Sets 23:51:44 0° 115° (ESE) 3,712 6.9 -22.9°
